This is the latest recevied weather packets stored in our database for station/object KE5QKR. If no packets are shown the sender has not sent any weather packets the latest 10 day(s).
| Time | Temp. | Humidity | Pressure | Rain* | Wind** | Luminosity | Snow |
|---|---|---|---|---|---|---|---|
| 1777844498 | 23.89° C | 40% | 1016.8 hPa | 0 mm | - | 392 W/m² | - |
| 1777844198 | 24.44° C | 40% | 1017 hPa | 0 mm | - | 420 W/m² | - |
| 1777843894 | 24.44° C | 37% | 1017.1 hPa | 0 mm | - | 438 W/m² | - |
| 1777843591 | 23.89° C | 37% | 1016.9 hPa | 0 mm | - | 451 W/m² | - |
| 1777843289 | 23.89° C | 36% | 1017.3 hPa | 0 mm | - | 467 W/m² | - |
| 1777842986 | 24.44° C | 35% | 1017.2 hPa | 0 mm | - | 486 W/m² | - |
| 1777842681 | 24.44° C | 36% | 1017.4 hPa | 0 mm | - | 500 W/m² | - |
| 1777842378 | 25° C | 37% | 1017.4 hPa | 0 mm | - | 517 W/m² | - |
| 1777842075 | 23.89° C | 41% | 1017.6 hPa | 0 mm | - | 533 W/m² | - |
| 1777841771 | 23.89° C | 38% | 1017.5 hPa | 0 mm | - | 546 W/m² | - |
| 1777841467 | 23.89° C | 39% | 1017.5 hPa | 0 mm | - | 560 W/m² | - |
| 1777841164 | 23.89° C | 39% | 1017.8 hPa | 0 mm | - | 573 W/m² | - |
| 1777840861 | 24.44° C | 39% | 1017.6 hPa | 0 mm | - | 585 W/m² | - |
| 1777840558 | 24.44° C | 43% | 1017.9 hPa | 0 mm | - | 594 W/m² | - |
| 1777840255 | 23.89° C | 38% | 1018.1 hPa | 0 mm | - | 620 W/m² | - |
| 1777839953 | 23.89° C | 37% | 1018 hPa | 0 mm | - | 635 W/m² | - |
| 1777839651 | 23.33° C | 39% | 1018.2 hPa | 0 mm | - | 647 W/m² | - |
| 1777839349 | 23.89° C | 37% | 1018.2 hPa | 0 mm | - | 660 W/m² | - |
| 1777839046 | 23.89° C | 37% | 1018.2 hPa | 0 mm | - | 672 W/m² | - |
| 1777838742 | 23.89° C | 35% | 1018.2 hPa | 0 mm | - | 683 W/m² | - |
| 1777838439 | 23.33° C | 38% | 1018.3 hPa | 0 mm | - | 699 W/m² | - |
| 1777838136 | 23.89° C | 36% | 1018.6 hPa | 0 mm | - | 707 W/m² | - |
| 1777837833 | 23.89° C | 38% | 1018.6 hPa | 0 mm | - | 718 W/m² | - |
| 1777837530 | 23.33° C | 39% | 1018.7 hPa | 0 mm | - | 732 W/m² | - |
| 1777837230 | 23.89° C | 37% | 1018.6 hPa | 0 mm | - | 742 W/m² | - |
* Rain latest hour (hover to see other rain measurements)
** Current wind speed in m/s (hover to see current wind gust speed)